Weather in Kulhudhuffushi

Maldives     6°37′25″N   73°04′19″E
temp.,
°C
wind,
m/s
gust,
m/s
humid.,
%
clouds,
%
prec.,
mm/h
press.,
hPa
HPBL,
m
17 october, sun
sun1723:00+28w101478100 0.0 10081152
02:00+28w10137599 0.0 10061319
05:00+28w111377100 0.3 10071376
08:00+28w91276100 0.0 10101184
11:00+28w91276100 0.0 10091115
14:00+28w91277100 0.0 10071185
17:00+28w91177100 0.1 10071176
20:00+27w91080100 1.1 1010925
18 october, mon
mon1823:00+27w91081100 2.9 1010844
02:00+27w101184100 3.9 1008824
05:00+26w101288100 9.6 1009947
08:00+27w101179100 2.3 1011869
11:00+26w81084100 4.2 1012752
14:00+26w8984100 4.1 1010717
17:00+26w8983100 5.1 1011740
20:00+27wnw7975100 0.1 1012819
19 october, tue
tue1923:00+28wnw6776100 0.1 1012835
02:00+28wnw6675100 0.1 1010921
05:00+28nw557552 1.1 1011765
08:00+28wnw5675100 0.0 1013809
11:00+28nw677488 0.0 1012931
14:00+28nw777216 0.0 10101100
17:00+28wnw77706 0.0 10101096
20:00+28nw677099 0.0 10121060
20 october, wed
wed2023:00+28nw6671100 0.0 10131010
02:00+27nw6672100 0.0 1011996
05:00+27nw6673100 0.0 10111059
08:00+28nw6672100 0.0 1013999
11:00+28nw6671100 0.1 1013951
14:00+28nw6671100 0.0 10111020
17:00+28nw5571100 0.0 1011964
20:00+28nnw4471100 0.0 1013962
21 october, thu
thu2123:00+28nw6673100 0.0 1013818
02:00+27nnw7773100 0.0 1011853
05:00+28nnw5570100 0.0 1011987
08:00+28nnw3466100 0.0 1013952
11:00+28nw336389 0.0 1013872
14:00+28nw446699 0.0 1011873
17:00+28nw5568100 0.0 1011947
20:00+28nnw5669100 0.0 1012862